Temp
24 24 24 24 24 24 23 23 23 23 22 22 22 22 22 22 22 21 21 21 21 21
24 24 25 24 24 24 24 23 23 23 22 22 22 21 21 22 22 21 21 21 21 21
24 25 25 25 25 24 24 23 23 22 22 22 22 21 22 22 22 22 21 21 21 21
25 25 25 25 25 24 23 23 22 22 22 22 22 21 22 21 21 21 21 21 20 21
25 25 25 25 24 23 23 22 22 22 22 22 21 21 21 21 20 20 20 20 20 20
25 25 24 23 23 23 22 22 22 21 21 21 21 21 20 20 20 20 20 19 19 19
24 24 24 24 23 22 22 21 21 21 20 20 20 20 20 19 19 19 19 19 19 19
24 24 24 23 22 22 21 20 20 20 19 19 19 18 18 18 18 18 18 18 18 17
23 23 23 22 21 20 20 19 19 18 18 18 16 17 17 17 17 16 16 16 16 16
22 22 22 21 20 19 19 19 19 17 16 15 15 15 16 16 15 15 14 14 13 13
23 21 20 20 19 19 19 19 17 16 15 14 13 14 14 15 14 13 12 12 11 11
22 20 19 19 19 18 18 17 16 15 14 14 13 12 12 12 12 11 11 11 11 10
20 19 19 18 18 17 17 16 15 14 13 12 12 11 11 11 10 9 9 10 10 10
19 19 18 18 17 17 16 15 14 13 12 12 12 11 11 11 10 9 9 9 9 9
Height
804 805 806 806 808 809 809 809 809 808 807 805 802 799 797 795 791 788 784 781 777 774
803 804 805 806 807 807 808 809 808 808 806 804 802 799 797 795 791 788 784 781 778 776
802 803 804 806 807 807 807 808 807 807 805 803 801 799 797 794 791 788 785 781 779 777
799 801 803 804 805 805 806 806 806 806 804 802 800 798 796 794 792 789 786 783 780 777
798 799 801 803 804 804 805 806 805 803 802 801 800 798 796 795 792 789 787 784 781 779
799 800 802 804 806 805 804 804 803 803 802 800 799 797 796 794 792 790 787 784 782 779
799 800 802 805 805 804 803 803 802 802 801 799 798 796 796 794 792 790 789 786 782 779
796 799 802 804 803 803 803 803 802 801 800 799 797 796 795 794 793 791 788 786 782 778
795 796 798 801 801 801 802 803 803 800 801 800 799 798 796 795 793 791 788 785 782 779
794 794 795 796 799 801 803 802 802 801 801 802 801 800 797 795 793 790 788 785 781 778
794 794 795 797 797 797 797 801 803 801 802 803 803 801 797 793 790 787 785 784 781 779
793 794 797 798 798 795 796 800 802 805 802 801 802 802 796 790 786 785 783 781 779 777
792 794 797 799 794 797 800 801 805 804 804 802 802 802 795 789 787 786 783 781 778 775
793 795 796 796 798 800 802 803 807 805 805 805 804 801 796 790 788 785 783 780 777 776
Wind_Speed
10 10 13 13 14 11 9 10 9 10 12 14 15 16 16 18 20 19 17 18 18 17
16 15 15 13 13 12 9 7 6 9 14 16 16 16 14 18 21 19 17 19 17 16
17 15 14 13 11 8 7 6 6 8 12 15 15 14 15 19 21 21 19 19 19 18
16 16 14 11 8 7 7 6 7 8 11 13 16 12 13 17 19 22 23 20 20 22
16 15 12 10 9 8 5 6 8 7 10 12 14 12 11 13 17 21 24 21 20 21
15 11 13 15 9 6 6 7 9 9 10 13 15 12 10 11 16 19 20 20 21 21
17 17 14 7 6 7 7 8 9 10 11 12 12 11 12 15 17 17 19 18 19 21
18 13 8 6 6 5 8 9 8 9 12 13 12 14 13 13 14 15 15 16 20 19
15 11 10 8 7 9 10 10 11 12 13 16 19 16 13 12 13 15 18 21 21 19
16 15 12 10 10 10 11 10 11 13 15 19 21 18 18 18 17 19 20 20 20 20
15 15 12 11 11 10 11 12 13 13 18 20 23 23 23 21 19 21 22 21 22 20
14 12 12 11 12 16 14 11 13 17 20 20 22 26 24 23 23 25 25 26 27 23
12 12 10 11 18 15 18 21 19 18 19 21 22 22 25 25 25 26 26 27 27 28
13 12 14 15 17 19 21 21 17 19 18 18 19 22 25 27 27 26 27 26 27 28
Wind_Direction
159 149 132 125 118 106 82 75 55 39 32 20 17 21 28 30 23 14 6 1 9 10
148 144 137 135 124 107 96 77 60 34 26 24 29 25 33 21 17 16 17 16 6 358
151 147 139 137 126 112 102 78 45 30 23 22 22 22 28 24 18 15 16 15 12 10
158 157 162 159 142 126 115 64 32 20 17 13 14 21 23 21 19 16 11 12 13 15
161 167 182 172 148 120 74 38 25 12 8 3 1 1 3 11 16 13 6 5 6 6
168 173 134 125 117 69 44 37 31 24 10 3 359 355 353 9 8 8 6 6 3 7
137 127 124 103 70 55 56 47 39 24 15 17 22 23 12 5 1 1 359 359 7 7
142 129 114 83 56 55 64 58 50 36 36 39 32 18 1 357 354 358 11 13 12 18
132 121 102 91 94 84 78 62 47 40 46 53 48 35 31 32 34 19 9 3 358 9
127 116 118 119 102 70 55 53 53 66 64 64 51 34 29 17 12 6 2 2 2 355
137 128 126 110 94 76 77 72 55 78 77 62 40 19 13 10 16 19 20 17 10 7
125 118 111 94 84 82 71 60 88 92 68 48 35 15 15 23 26 23 21 19 16 7
121 117 99 92 84 78 97 106 100 79 55 46 30 25 29 32 32 24 18 17 17 13
124 110 110 103 108 108 102 106 90 78 66 47 33 40 44 40 34 24 18 10 5 7